Location: Coto De Caza
(33.6042°N, 117.5870°W)
Time: 02:28:32
(UTC+00:00)

Daily predictions for brighter satellites

Satellite Brightness Start Highest point End
(mag) Time Altitude Azimuth Time Altitude Azimuth Time Altitude Azimuth
Cosmos 2195 Rocket 4.5 03:21:52 10° S 03:27:56 74° E 03:34:05 10° N
Cosmos 1766 4.4 03:27:23 10° NNE 03:30:29 24° ENE 03:33:33 10° SE
Cosmos 1666 Rocket 3.7 03:28:29 10° N 03:32:44 55° E 03:37:00 10° SSE
COSMOS 2406 3.2 03:29:57 10° SSW 03:35:41 77° ESE 03:41:25 10° NNE
NOSS 3-4 (A) 4.1 03:30:07 10° NNW 03:37:29 90° WSW 03:45:50 10° SSE
NOSS 3-4 (C) 4.1 03:30:10 10° NNW 03:37:31 89° ENE 03:45:49 10° SSE
CSL-04 Debris 4.3 03:33:27 10° SSE 03:38:47 61° ENE 03:44:06 10° N
SPOT 1/Viking Rocket 3.9 03:34:22 10° S 03:39:27 70° WSW 03:44:34 10° NNW
Cosmos 1092 Rocket 4.0 03:33:22 10° S 03:39:40 76° E 03:46:01 10° N
Cosmos 1980 Rocket 2.6 03:34:41 10° N 03:40:10 48° ENE 03:45:35 10° SE
FALCON 9 R/B 3.2 03:38:54 10° WSW 03:42:07 29° SSW 03:49:18 10° SE
Resurs 01 Rocket 1.6 03:47:32 10° SSE 03:51:57 84° ENE 03:56:21 10° N
OAO 1 Rocket 4.5 03:47:57 10° W 03:53:17 74° SSW 03:58:02 13° ESE
USA 234 3.2 03:48:32 10° NE 03:55:03 71° SE 04:01:33 10° SW
Delta 168 4.5 03:51:38 10° WSW 03:56:42 40° S 04:03:26 12° ESE
Terra 3.8 03:55:22 10° E 03:57:21 13° ENE 03:59:20 10° NE
Lacrosse 5 rocket 3.5 03:58:02 10° WNW 04:01:07 20° WSW 04:04:06 10° SSW
Cosmos 1470 3.8 03:59:12 10° NNE 04:02:21 26° E 04:04:12 18° ESE
IRIDIUM 103 4.4 03:59:03 10° N 04:04:12 58° E 04:09:14 10° SSE
CZ-4 R/B 3.3 04:01:13 10° SSW 04:04:37 28° W 04:08:04 10° NW
Cosmos 2026 Rocket 4.4 03:58:33 10° SSW 04:04:40 65° W 04:10:45 10° N
KORONAS-FOTON 3.6 04:03:19 10° S 04:07:00 71° E 04:10:42 10° NNE
CZ-4B R/B 3.8 04:06:50 10° S 04:11:57 52° W 04:17:08 10° NNW
Cosmos 1842 3.0 04:09:06 10° S 04:12:45 86° W 04:16:24 10° N
IRIDIUM 106 4.3 04:17:16 10° N 04:22:29 89° NE 04:27:28 11° S
IRS-1C Rocket 4.5 04:26:32 23° SE 04:29:28 47° ENE 04:34:29 10° N
In-Cosmos 22 4.2 04:25:09 12° S 04:30:19 62° E 04:35:48 10° NNE
Cosmos 540 Rocket 3.5 04:26:13 10° N 04:31:19 61° ENE 04:34:01 27° SE
Cosmos 2360 Rocket 4.2 04:28:39 10° NNE 04:31:23 14° NE 04:34:00 10° E
Cosmos 1707 3.4 04:34:01 10° SSW 04:37:31 49° W 04:41:02 10° N
Cosmos 968 Rocket 4.3 04:37:09 27° ESE 04:38:04 29° E 04:42:29 10° NE
Okean-O 2.7 04:36:10 21° S 04:39:02 73° WSW 04:43:26 10° NNW
Cosmos 1741 Rocket 4.3 04:38:46 25° SSE 04:41:28 47° ESE 04:46:31 10° NNE
SL-16 R/B 3.0 04:37:39 10° N 04:42:50 35° ENE 04:45:05 26° ESE
SeaSat 1 3.3 04:42:03 26° ESE 04:44:00 36° ENE 04:48:29 10° N
Cosmos 2333 Rocket 4.1 04:41:18 10° NNE 04:44:51 16° NE 04:47:07 13° E
Cosmos 2369 4.2 04:41:12 10° NNW 04:46:48 58° WSW 04:50:32 21° S
USA 245 3.5 04:47:48 39° E 04:48:02 40° ENE 04:51:41 10° N
CZ-4C R/B 4.5 04:44:31 10° N 04:48:29 45° WNW 04:52:23 10° SSW
Atlas Centaur 2 3.0 04:43:03 10° W 04:51:08 70° S 04:56:31 24° ESE
Tiangong -1.8 04:51:34 10° NW 04:54:40 54° NNE 04:54:54 53° NE
SPOT 5 2.7 04:53:26 33° S 04:55:16 73° W 04:59:36 10° NNW
Cosmos 2228 Rocket 3.4 04:55:59 43° ESE 04:56:38 46° E 05:01:00 10° NNE
Cosmos 381 Rocket 4.4 04:51:58 10° NNW 04:58:20 87° ENE 05:01:22 33° SSE
Okean O Rocket 3.8 04:55:57 10° SW 04:59:13 20° W 05:02:30 10° NW
ASTRO E2 3.8 04:56:49 10° WSW 04:58:37 26° SW 04:58:37 26° SW
IRS-1A Rocket 4.1 04:57:29 33° SSE 05:00:07 90° E 05:05:39 10° NNW
MetOp-B 4.3 04:57:49 28° S 05:00:43 70° WSW 05:06:04 10° NNW
Cosmos 1356 Rocket 3.6 05:01:42 50° ESE 05:01:50 51° E 05:05:54 10° NNE
SL-08 ROCKET BODY 4.4 04:58:26 22° S 05:02:36 88° E 05:08:42 10° N
Cosmos 1400 Rocket 3.0 05:03:49 37° SSW 05:05:12 67° W 05:09:03 10° N
Cosmos 1869 Rocket 3.5 05:01:51 10° N 05:06:18 90° E 05:07:23 52° S
ERS-1 Rocket 2.9 05:10:39 44° S 05:12:17 84° WSW 05:17:19 10° NNW
ATLAS CENTAUR R/B 2.1 05:11:14 16° SW 05:13:44 42° WNW 05:17:06 10° NNE
Meteor 1-12 Rocket 4.4 05:08:09 10° N 05:14:07 62° E 05:15:46 45° SE
S3M 3.9 05:10:26 10° N 05:16:49 90° SW 05:19:23 39° S
Cosmos 1300 3.6 05:14:47 10° N 05:17:15 35° NE 05:17:15 35° NE
Cosmos 1441 Rocket 4.1 05:15:57 10° NNW 05:19:19 37° W 05:19:50 35° WSW
Cosmos 2266 Rocket 4.5 05:15:24 16° SSW 05:20:23 60° W 05:26:42 10° N
Cosmos 841 Rocket 3.4 05:15:48 10° NNW 05:21:04 75° ENE 05:22:02 58° SE
Meteor 1-22 Rocket 4.3 05:16:25 10° N 05:22:10 84° W 05:24:08 44° S
Cosmos 1655 Rocket 4.0 05:19:20 32° S 05:22:35 86° W 05:29:01 10° N
Spot 2 Rocket 3.4 05:22:35 57° SSE 05:23:39 89° WSW 05:28:45 10° NNW
Cosmos 1980 Rocket 4.3 05:19:52 10° WNW 05:23:40 19° W 05:27:28 10° SW
Cosmos 2322 Rocket 2.5 05:20:15 10° N 05:25:48 51° ENE 05:26:46 46° E
Aureole 3 4.1 05:27:56 42° NE 05:27:56 42° NE 05:31:09 10° NNE
Cosmos 1862 Rocket 3.4 05:32:16 85° NNE 05:32:16 85° NNE 05:36:36 10° N
Terra 2.2 05:33:36 48° SW 05:34:24 55° W 05:39:02 10° NNW
Meteor 2-10 Rocket 3.5 05:31:14 10° N 05:36:44 82° W 05:37:35 64° S
Cosmos 2278 4.1 05:32:03 10° NNW 05:37:37 55° WSW 05:38:58 45° SSW
Meteor 1-21 4.3 05:36:20 47° SSW 05:38:06 80° W 05:43:56 10° N
Cosmos 1244 Rocket 4.5 05:41:01 56° ESE 05:41:44 60° E 05:47:54 10° NNE
Landsat 5 3.6 05:38:26 10° N 05:42:09 69° NNW 05:42:09 69° NNW
Okean 3 3.8 05:44:40 59° N 05:44:40 59° N 05:48:06 10° N
Ariane Rocket 3.4 05:47:41 49° SW 05:48:23 53° W 05:53:23 10° NNW
Cosmos 2219 Rocket 3.3 05:46:13 10° N 05:51:14 31° ENE 05:51:37 31° ENE
SJ 16-02 1.8 05:53:27 57° NW 05:53:27 57° NW 05:57:26 10° N
Cosmos 1346 Rocket 4.1 05:58:38 10° NNW 06:01:14 37° NW 06:01:14 37° NW
COSMOS 2455 4.0 06:07:48 30° ENE 06:07:48 30° ENE 06:11:20 10° NE
ARIANE 5 R/B 4.2 06:08:40 26° NE 06:08:40 26° NE 06:11:12 10° N
RESURS DK-1 3.8 06:04:05 10° NW 06:06:46 34° WNW 06:06:46 34° WNW
CZ-4C R/B 4.1 06:13:09 14° NE 06:13:09 14° NE 06:13:55 10° NE
SL-08 R/B 4.3 06:10:00 80° ESE 06:10:11 82° E 06:16:17 10° N
Cosmos 2360 Rocket 2.2 06:10:18 10° NNW 06:15:44 75° W 06:15:44 75° W
Cosmos 1733 Rocket 4.5 06:16:28 10° NNW 06:19:50 33° WNW 06:19:50 33° WNW
SeaSat 1 4.1 06:21:45 23° WSW 06:21:45 23° WSW 06:25:19 10° NW
Okean 1-7 4.3 06:24:32 38° NW 06:24:32 38° NW 06:27:39 10° N
ATLAS 2AS CENTAUR R/B 2.4 06:17:50 10° NNW 06:24:35 84° ENE 06:24:53 81° ESE
SL-16 R/B 3.7 06:22:06 10° NW 06:26:41 26° WSW 06:26:57 26° WSW
Cosmos 2333 Rocket 2.5 06:23:52 10° NNW 06:29:07 62° W 06:29:07 62° W
GP-B 4.4 06:28:01 10° N 06:30:43 37° N 06:30:43 37° N
USA 281 3.3 06:32:33 59° E 06:32:59 60° ENE 06:39:27 10° NNW
Atlas Centaur 2 3.5 06:32:25 10° W 06:38:43 43° SW 06:38:43 43° SW
Cosmos 2227 Rocket 4.2 06:52:28 17° ENE 06:52:28 17° ENE 06:54:14 10° NE
Cosmos 2237 Rocket 4.2 06:46:52 10° NNE 06:50:31 17° ENE 06:51:07 17° ENE
Cosmos 1745 Rocket 4.1 06:53:20 74° WNW 06:53:20 74° WNW 06:59:28 10° N
Cosmos 2322 4.2 06:47:41 10° NNW 06:52:24 53° NNE 06:52:24 53° NNE
Cosmos 2322 Rocket 4.2 07:05:41 10° WNW 07:08:34 17° W 07:08:34 17° W
Cosmos 2297 Rocket 3.0 07:11:25 46° NNE 07:11:25 46° NNE 07:15:20 10° NNE
Nadezhda 1 Rocket 4.2 07:03:29 10° NNW 07:09:03 64° NW 07:09:03 64° NW
Cosmos 839 Rocket 4.4 07:03:25 10° NW 07:08:45 53° WNW 07:08:45 53° WNW
CENTAUR R/B 3.8 07:20:44 26° ENE 07:20:44 26° ENE 07:23:52 10° NE
ATLAS 2A CENTAUR R/B 4.3 06:46:45 10° WSW 07:21:43 62° S 07:22:17 61° S
Meteor 2-5 Rocket 4.2 07:24:15 59° N 07:24:15 59° N 07:28:58 10° N
COSMOS 2428 3.5 07:29:06 10° NNW 07:33:09 47° NW 07:33:09 47° NW
Cosmos 2219 Rocket 3.8 07:30:11 10° NW 07:33:20 25° WNW 07:33:20 25° WNW
Cosmos 2263 Rocket 4.1 07:45:28 19° ENE 07:45:28 19° ENE 07:47:43 10° NE
COSMOS 2455 4.3 07:50:52 28° WNW 07:51:45 29° NW 07:56:56 10° N
NOSS 0 Rocket 4.4 07:49:05 10° NNW 07:54:00 57° NW 07:54:00 57° NW
CZ-4C R/B 3.8 07:58:11 21° NW 07:58:11 21° NW 08:02:03 10° N
NOSS 3-2 (A) 4.4 08:06:19 33° NE 08:06:19 33° NE 08:09:33 10° NE
Cosmos 2184 Rocket 4.2 08:07:26 69° N 08:07:26 69° N 08:12:57 10° N
SL-12 R/B(2) 4.0 08:08:53 78° SW 08:09:29 85° WNW 08:18:36 10° NNE
SL-4 R/B 4.5 08:18:03 10° NNW 08:19:46 21° N 08:19:46 21° N
Cosmos 2154 Rocket 4.2 08:24:17 67° NNW 08:24:17 67° NNW 08:29:43 10° N
SL-16 R/B 3.5 08:22:43 10° N 08:27:48 32° ENE 08:28:24 32° ENE
H-2A R/B 4.3 08:26:19 10° N 08:28:00 20° NNW 08:28:00 20° NNW
Cosmos 2082 4.4 08:32:57 48° NE 08:32:57 48° NE 08:37:08 10° NNE
Cosmos 2227 Rocket 3.2 08:34:15 38° NW 08:34:15 38° NW 08:38:53 10° N
Cosmos 2237 Rocket 3.3 08:29:23 10° NNW 08:32:55 37° NW 08:32:55 37° NW
IDEFIX/ARIANE 42P 4.3 08:34:51 10° NE 08:38:13 22° E 08:38:13 22° E
CZ-2D R/B 4.0 08:45:19 10° NE 08:48:55 20° E 08:48:55 20° E
Cosmos 2297 Rocket 4.5 08:53:11 13° WNW 08:54:18 13° NW 08:56:57 10° NNW
Cosmos 2219 3.9 08:57:02 45° NW 08:57:02 45° NW 09:01:46 10° N
NPP 4.4 09:01:30 10° NNE 09:06:15 43° E 09:06:15 43° E
CENTAUR R/B 3.7 09:07:50 26° WNW 09:08:55 28° NW 09:14:28 10° NNE
Cosmos 2341 Rocket 3.9 09:12:42 85° NW 09:12:42 85° NW 09:18:49 10° N
ADEOS II 3.7 09:10:37 10° NE 09:14:43 23° E 09:15:11 23° ESE
USA 238 DEB 3.9 09:16:15 48° ESE 09:16:15 48° ESE 09:22:17 10° NE
USA 238 3.9 09:16:17 47° ESE 09:16:17 47° ESE 09:22:20 10° NE
MOZ.5/SAFIR/RUBIN 5/SL-8 4.5 09:18:28 51° NE 09:18:28 51° NE 09:22:20 10° N
Cosmos 1937 Rocket 3.9 09:18:39 60° NNW 09:18:39 60° NNW 09:23:06 10° NNE
Cosmos 1898 Rocket 4.3 09:22:24 41° NW 09:22:24 41° NW 09:26:33 10° N
Cosmos 864 Rocket 4.3 09:22:44 83° SSW 09:23:00 89° W 09:29:22 10° N
Meteor 2-1 Rocket 4.2 09:19:09 10° N 09:25:02 85° ENE 09:25:02 85° ENE
Cosmos 2263 Rocket 3.1 09:27:08 37° WNW 09:27:08 37° WNW 09:32:06 10° N
Resurs 1-4 Rocket 2.5 09:23:16 10° NNE 09:28:26 54° E 09:28:26 54° E
Cosmos 1821 Rocket 3.9 09:44:40 63° SSE 09:45:40 77° E 09:51:47 10° N
Cosmos 1437 Rocket 3.9 09:47:29 41° NE 09:47:29 41° NE 09:50:15 10° NNE
Cosmos 1844 Rocket 2.9 09:45:59 53° SE 09:46:32 56° ESE 09:51:58 10° NNE
Cosmos 2218 Rocket 4.1 09:48:21 55° W 09:48:46 56° W 09:54:51 10° N
ALOS 3.8 09:46:52 10° NE 09:50:44 26° E 09:51:43 24° ESE
Cosmos 2366 rocket 4.4 09:55:01 46° W 09:55:30 46° W 10:01:30 10° N
Cosmos 1544 Rocket 4.2 09:51:46 10° NNW 09:55:05 47° NW 09:55:05 47° NW
Cosmos 2228 3.3 09:54:56 10° N 09:58:31 60° NNW 09:58:31 60° NNW
Cosmos 1680 Rocket 3.3 09:54:40 10° NNW 09:59:53 90° ESE 10:00:27 72° SSE
NOSS 3-2 (C) 4.0 10:00:08 34° WNW 10:00:55 35° NW 10:06:13 10° NNE
Cosmos 2112 Rocket 4.0 09:57:00 10° NNW 10:02:12 79° ENE 10:03:19 55° SE
Cosmos 1818 3.7 09:57:09 10° NNW 10:02:38 75° ENE 10:05:15 31° SE
MSX 4.0 10:02:09 10° N 10:07:44 56° WNW 10:08:36 51° WSW
COSMOS 2441 4.2 10:03:16 10° N 10:08:06 81° WNW 10:08:25 76° SW
USA 267 3.2 10:02:44 10° NE 10:09:17 83° SE 10:11:21 47° SW
SL-16 R/B 3.5 10:06:55 10° NW 10:10:12 25° WNW 10:10:12 25° WNW
IDEFIX/ARIANE 42P 3.4 10:13:47 10° N 10:18:28 34° WNW 10:18:57 34° W
SL-16 R/B 3.2 10:13:27 10° SSE 10:19:31 55° ENE 10:25:34 10° N
CZ-2C R/B 2.5 10:18:44 57° SSW 10:19:34 66° WSW 10:24:53 10° NNW
SEDSat Delta rocket 3.4 10:20:59 43° ESE 10:20:59 43° ESE 10:24:00 10° E
Cosmos 1934 Rocket 4.3 10:20:51 28° SSE 10:24:16 65° E 10:30:34 10° NNE
CZ-2C R/B 3.2 10:19:50 10° N 10:25:00 53° WNW 10:25:53 47° WSW
Cosmos 1943 3.0 10:20:59 10° NNW 10:26:36 80° WSW 10:29:23 31° SSE
CZ-2D R/B 2.7 10:24:19 10° N 10:29:15 40° WNW 10:30:12 37° W
Cosmos 1606 Rocket 3.6 10:27:16 10° N 10:31:42 76° E 10:33:15 39° SSE
Cosmos 921 Rocket 3.5 10:27:52 10° N 10:32:00 55° ENE 10:34:31 22° SE
Mugunghwa Rocket 4.3 10:30:41 40° SSW 10:32:04 45° S 10:38:06 10° ESE
FENGYUN 3A 3.7 10:27:37 10° N 10:32:54 60° WNW 10:34:26 43° SW
ASTEX 1 3.3 10:31:48 38° S 10:33:43 87° E 10:38:35 10° N
Envisat 4.1 10:30:30 10° NNE 10:35:13 38° E 10:38:38 17° SSE
Iridium 2 4.4 10:40:08 31° N 10:40:08 31° N 10:41:35 10° N
Cosmos 1125 Rocket 3.5 10:38:11 37° S 10:40:17 81° ESE 10:45:35 10° NNE
CZ-2C R/B 4.0 10:41:12 10° NE 10:45:07 28° E 10:49:03 10° SSE
Cosmos 1726 Rocket 3.5 10:42:43 10° N 10:47:10 84° E 10:49:33 27° S
Cosmos 1812 3.6 10:43:49 10° N 10:47:14 43° E 10:49:37 17° SSE
Cosmos 2058 3.0 10:48:11 34° S 10:49:49 71° E 10:53:52 10° NNE
Cosmos 494 Rocket 3.9 10:47:02 10° NNW 10:52:17 81° WSW 10:57:06 12° SSE
Cosmos 1727 Rocket 4.5 10:46:36 10° NNW 10:52:29 42° W 10:55:03 29° SW
ADEOS II 2.9 10:49:37 10° N 10:54:20 35° WNW 10:56:03 28° WSW
SAR-Lupe-4 3.6 10:52:35 10° N 10:56:06 62° WNW 10:56:48 48° SW
YAOGAN 6 4.3 10:55:37 10° NE 10:58:15 24° E 11:00:36 11° SSE
Cosmos 1844 4.5 10:57:17 27° WSW 10:59:41 38° WNW 11:05:03 10° N
IRAS Rocket 4.2 10:54:34 10° N 11:00:02 72° WNW 11:03:12 26° SSW
USA 81 4.0 11:00:10 10° N 11:05:28 89° W 11:10:23 12° S
Resurs 1-4 Rocket 3.9 11:04:34 10° NNW 11:07:43 16° WNW 11:09:29 14° W
ATLAS 5 CENTAUR R/B 1.3 11:06:36 31° S 11:07:51 51° ESE 11:11:06 10° NE
UNK 3.6 11:03:41 11° SSE 11:08:07 85° WSW 11:12:43 10° NNW
GOES 2 Rocket 4.3 11:08:49 22° S 11:08:49 22° S 11:11:59 10° SE
Iridium 4 Rocket 3.3 11:04:34 10° N 11:09:09 81° E 11:14:08 10° S
Meteor 1-28 Rocket 3.8 11:10:01 31° WSW 11:10:11 31° W 11:13:22 10° NW
Timation 2 Rocket 4.2 11:08:51 23° SW 11:13:03 61° WNW 11:19:27 10° NNE
Cosmos 1544 2.0 11:13:19 53° SSW 11:13:47 71° W 11:16:23 10° N
NOSS 2-2 (E) 3.5 11:12:35 23° S 11:14:32 52° ESE 11:17:40 10° NE
Delta 2 Rocket 3.2 11:18:27 12° WNW 11:22:13 87° SSW 11:26:40 10° ESE
Cosmos 2058 Rocket 3.0 11:21:13 10° NNW 11:25:37 69° W 11:29:56 10° S
Thor Agena Rocket 4.1 11:20:30 10° NNE 11:25:42 58° ESE 11:30:50 10° S
Cosmos 1758 Rocket 4.1 11:22:01 10° S 11:26:23 59° E 11:30:43 10° NNE
ALOS 3.6 11:24:05 10° NNW 11:27:46 24° WNW 11:30:00 17° WSW
NOAA 11 4.2 11:23:09 10° N 11:28:36 70° WNW 11:33:30 13° SSW
Cosmos 1844 Rocket 4.4 11:27:38 12° W 11:30:44 17° WNW 11:34:23 10° NNW
NOSS 2-3 (D) 3.2 11:29:15 18° SSW 11:31:54 78° ESE 11:35:37 10° NNE
Cosmos 2298 Rocket 4.2 11:29:42 17° SSW 11:33:46 58° WNW 11:39:01 10° N
METEOR-M 4.4 11:30:06 10° N 11:35:17 53° WNW 11:39:52 13° SSW
Cosmos 1500 4.3 11:38:21 10° SSE 11:41:35 39° E 11:44:48 10° NNE
USA 276 4.3 11:41:31 10° S 11:43:28 16° SE 11:45:22 10° E
Cosmos 1607 4.0 11:39:34 10° NW 11:45:49 61° WSW 11:51:54 10° SSE
Cosmos 1605 Rocket 4.4 11:41:46 11° SSW 11:47:21 43° W 11:53:10 10° N
Cosmos 1626 Rocket 4.0 11:44:00 11° SSW 11:48:01 46° W 11:52:17 10° N
NOSS 2-2 (C) 4.1 11:46:58 14° WSW 11:49:22 28° WNW 11:52:08 10° N
Cosmos 2278 Rocket 3.0 11:47:24 10° S 11:52:52 51° ESE 11:58:20 10° NNE
Cosmos 1862 3.2 11:49:49 10° S 11:53:36 82° E 11:57:25 10° N
